Flag for Belgium Weather past 2 weeks in Namur, Belgium

66 °F

Passing clouds.

Feels Like: 66 °F
Forecast: 52 / 65 °F
Wind: 9 mph from Southwest

Location: Charleroi / Gosselies

Current Time: Oct 4, 2015 at 5:33:49 PM

Latest Report: Oct 4, 2015 at 4:50 PM

Visibility: N/A

Pressure: 29.98 "Hg

Humidity: 49%

Dew point: 46 °F

Location of NamurLocation

Historic Weather in Namur — Graph


Namur temperature yesterday

Maximum temperature yesterday: 66 °F (at 2:50 PM)
Minimum temperature yesterday: 46 °F (at 12:50 AM)
Average temperature yesterday: 56 °F

Past Weeks' High & Low Weather Summary

High66 °F (Oct 3, 2:50 PM)100% (Sep 20, 1:20 AM)30.63 "Hg (Sep 20, 1:20 AM)
Low39 °F (Oct 2, 5:50 AM)39% (Oct 1, 3:20 PM)29.50 "Hg (Sep 22, 2:20 PM)
Average53 °F78%30.20 "Hg
* Reported Sep 19 4:20 PM — Oct 4 4:20 PM, Namur, Weather by CustomWeather, © 2015

Note: Actual official high and low records may vary slightly from our data, if they occured in-between our weather recording intervals... More about our weather records


Namur weather history for previous 24 hours

Time TempWeatherWind HumidityBarometerVisibility
4:20 PM
Sun, Oct 4
64 °FPassing clouds.8 mph52%29.98 "HgN/A
3:50 PM66 °FPassing clouds.9 mph52%29.98 "HgN/A
3:20 PM64 °FPassing clouds.6 mph52%29.98 "HgN/A
2:50 PM64 °FPassing clouds.6 mph60%30.01 "HgN/A
2:20 PM63 °FPassing clouds.5 mph68%30.01 "HgN/A
1:50 PM63 °FPassing clouds.6 mph68%30.01 "HgN/A
1:20 PM61 °FScattered clouds.8 mph68%30.04 "Hg6 mi
12:50 PM59 °FScattered clouds.6 mph77%30.04 "Hg6 mi
12:20 PM57 °FScattered clouds.8 mph77%30.04 "Hg5 mi
11:50 AM57 °FScattered clouds.7 mph77%30.04 "Hg4 mi
11:20 AM55 °FScattered clouds.8 mph82%30.04 "Hg4 mi
10:50 AM54 °FFog.10 mph94%30.04 "Hg3 mi
10:20 AM52 °FFog.10 mph100%30.04 "Hg2 mi
9:50 AM52 °FFog.8 mph100%30.04 "Hg1 mi
9:20 AM52 °FFog.9 mph94%30.04 "Hg2 mi
8:50 AM52 °FDrizzle. Partly sunny.9 mph94%30.04 "Hg1 mi
8:20 AM50 °FPassing clouds.7 mph94%30.04 "Hg5 mi
7:50 AM50 °FClear.7 mph94%30.01 "Hg5 mi
7:20 AM52 °FClear.8 mph88%30.01 "Hg5 mi
6:50 AM50 °FClear.6 mph94%30.01 "Hg5 mi
6:20 AM50 °FClear.3 mph94%30.01 "Hg5 mi
5:50 AM50 °FClear.5 mph88%29.98 "Hg5 mi
5:20 AM48 °FClear.3 mph94%29.98 "Hg5 mi
4:50 AM50 °FClear.5 mph88%29.98 "Hg5 mi
4:20 AM50 °FClear.3 mph88%29.98 "Hg5 mi
3:50 AM52 °FClear.1 mph82%29.98 "Hg5 mi
3:20 AM52 °FClear.3 mph88%29.98 "Hg4 mi
2:50 AM52 °FClear.2 mph88%29.98 "Hg4 mi
2:20 AM50 °FClear.3 mph94%29.98 "Hg4 mi
1:50 AM52 °FClear.2 mph88%29.98 "Hg4 mi
1:20 AM52 °FClear.5 mph88%29.98 "Hg4 mi
12:50 AM50 °FClear.3 mph94%29.98 "Hg5 mi
12:20 AM52 °FClear.3 mph88%29.98 "Hg10 mi
11:50 PM
Sat, Oct 3
54 °FPassing clouds.3 mph82%29.98 "HgN/A
11:20 PM55 °FClear.2 mph77%29.95 "Hg10 mi
10:50 PM54 °FClear.2 mph88%29.98 "Hg10 mi
10:20 PM55 °FClear.3 mph82%29.95 "Hg10 mi
9:50 PM57 °FClear.3 mph72%29.95 "Hg10 mi
9:20 PM57 °FClear.2 mph72%29.95 "Hg10 mi
8:50 PM57 °FClear.2 mph72%29.95 "Hg10 mi
8:20 PM59 °FClear.1 mph68%29.95 "Hg10 mi
7:50 PM61 °FSunny.5 mph63%29.95 "Hg10 mi
7:20 PM61 °FSunny.7 mph63%29.95 "Hg10 mi
6:50 PM63 °FSunny.7 mph59%29.95 "Hg10 mi
6:20 PM64 °FSunny.9 mph60%29.95 "Hg10 mi
5:50 PM66 °FPassing clouds.9 mph52%29.95 "HgN/A
5:20 PM66 °FPassing clouds.8 mph52%29.95 "HgN/A
Weather by CustomWeather, © 2015

See weather overviewHow to use our weather pages